Location: Gniazdowice
(50.2124°N, 20.2673°E)
Time: 23:11:40
(UTC+00:00)

Cosmos 2154 Rocket - Pass Details

Date: 23 May 2024
Orbit: 966 x 995 km, 82.9° (Epoch: 22 June)

Event Time Altitude Azimuth Distance (km) Brightness Sun altitude
Rises 01:32:32 0° 177° (S) 3,644 6.6 -9.1°
Reaches altitude 10° 01:35:02 10° 174° (S) 2,701 5.9 -8.8°
Maximum altitude 01:41:08 66° 94° (E) 1,057 4.4 -8.2°
Drops below altitude 10° 01:47:18 10° 14° (NNE) 2,723 7.4 -7.5°
Sets 01:49:50 0° 12° (NNE) 3,677 8.1 -7.2°
